Location: Unspecified
(0.0000°N, 0.0000°E)
Time: 20:35:42
(UTC+00:00)

A-11 Canister half - All Passes

Search period start: 20 May 2025 00:00
Search period end: 30 May 2025 00:00
Orbit: 1524 x 1684 km, 47.3° (Epoch: 20 May)

Date Brightness Start Highest point End Pass type
(mag) Time Alt. Az. Time Alt. Az. Time Alt. Az.
20 May - 01:39:04 10° N 01:45:52 20° NE 01:52:42 10° E visible
20 May - 03:40:57 10° NW 03:51:07 86° SW 04:01:16 10° SE visible
20 May - 05:50:23 10° W 05:56:27 17° SW 06:02:31 10° S daylight
20 May - 14:29:10 10° SSW 14:37:49 42° SE 14:46:23 10° ENE daylight
20 May - 16:34:05 10° WSW 16:42:33 40° NW 16:51:07 10° NNE daylight
21 May - 01:17:37 10° N 01:23:58 18° NE 01:30:21 10° E visible
21 May - 03:19:06 10° NW 03:29:16 89° NE 03:39:27 10° SE visible
21 May - 05:28:00 10° W 05:34:33 19° SW 05:41:06 10° S visible
21 May - 14:07:30 10° SSW 14:16:00 39° SE 14:24:24 10° ENE daylight
21 May - 16:12:07 10° WSW 16:20:44 43° NW 16:29:26 10° NNE daylight
22 May - 00:56:13 10° N 01:02:05 17° NE 01:07:57 10° E visible
22 May - 02:57:16 10° NW 03:07:26 84° NE 03:17:36 10° SE visible
22 May - 05:05:41 10° W 05:12:39 21° SW 05:19:38 10° S visible
22 May - 13:45:51 10° SSW 13:54:11 36° SE 14:02:24 10° ENE daylight
22 May - 15:50:10 10° WSW 15:58:56 46° NW 16:07:44 10° NNE daylight
23 May - 00:34:53 10° NNE 00:40:10 15° NE 00:45:27 10° ENE visible
23 May - 02:35:28 10° NW 02:45:35 79° NE 02:55:45 10° SE visible
23 May - 04:43:25 10° W 04:50:45 23° SW 04:58:07 10° S visible
23 May - 13:24:13 10° SSW 13:32:22 33° SE 13:40:23 10° ENE daylight
23 May - 15:28:15 10° WSW 15:37:07 50° NW 15:46:03 10° NNE daylight
24 May - 00:13:40 10° NNE 00:18:15 14° NE 00:22:51 10° ENE visible
24 May - 02:13:40 10° NNW 02:23:44 74° NE 02:33:52 10° SE visible
24 May - 04:21:11 10° W 04:28:53 24° SW 04:36:35 10° S visible
24 May - 13:02:35 10° S 13:10:32 31° SE 13:18:22 10° ENE daylight
24 May - 15:06:20 10° SW 15:15:19 54° NW 15:24:20 10° NNE daylight
24 May - 23:52:35 10° NNE 23:56:20 12° NE 00:00:04 10° ENE visible
25 May - 01:51:52 10° NNW 02:01:53 69° NE 02:11:59 10° SE visible
25 May - 03:59:00 10° W 04:07:00 26° SW 04:15:01 10° S visible
25 May - 12:40:59 10° S 12:48:42 28° SE 12:56:19 10° ENE daylight
25 May - 14:44:25 10° SW 14:53:31 58° NW 15:02:36 10° NNE daylight
25 May - 23:31:50 10° NNE 23:34:25 11° NE 23:36:58 10° ENE visible
26 May - 01:30:06 10° NNW 01:40:03 65° NE 01:50:05 10° SE visible
26 May - 03:36:52 10° WNW 03:45:07 28° SW 03:53:26 10° S visible
26 May - 12:19:23 10° S 12:26:53 26° SE 12:34:13 10° E daylight
26 May - 14:22:32 10° SW 14:31:44 63° NW 14:40:52 10° NNE daylight
27 May - 01:08:21 10° NNW 01:18:12 60° NE 01:28:09 10° SE night (unlit)
27 May - 03:14:44 10° WNW 03:23:15 31° SW 03:31:48 10° S visible
27 May - 11:57:49 10° S 12:05:02 24° SE 12:12:06 10° E daylight
27 May - 14:00:40 10° SW 14:09:55 68° NW 14:19:07 10° NNE daylight
27 May - 16:13:22 10° WNW 16:15:19 11° NW 16:17:16 10° NNW daylight
28 May - 00:46:36 10° NNW 00:56:21 56° NE 01:06:14 10° SE visible
28 May - 02:52:39 10° WNW 03:01:22 33° SW 03:10:09 10° SSE visible
28 May - 11:36:16 10° S 11:43:11 22° SE 11:49:58 10° E daylight
28 May - 13:38:48 10° SW 13:48:08 73° NW 13:57:22 10° NNE daylight
28 May - 15:50:14 10° WNW 15:53:25 12° NW 15:56:38 10° NNW daylight
29 May - 00:24:52 10° NNW 00:34:30 52° NE 00:44:16 10° SE visible
29 May - 02:30:35 10° WNW 02:39:30 36° SW 02:48:30 10° SSE visible
29 May - 11:14:45 10° S 11:21:20 21° SE 11:27:47 10° E daylight
29 May - 13:16:57 10° SW 13:26:20 78° NW 13:35:36 10° NE daylight
29 May - 15:27:31 10° WNW 15:31:32 13° NW 15:35:36 10° NNW daylight
